This demonstration page uses our WeatherBlox Daily Observations layout. Learn more.

Left ArrowRight Arrow

Hourly Observations for November 29, 2022

Temp ( °F °C ) Dew Point ( °F °C ) Humidity (%) Winds ( mph kmh ) Pressure ( in mb ) Visibility ( mi km ) Precip ( " mm )
12:15 am 00:15 Cloudy 35 1.8 19 -7 52 52 NNE 28 44 29.66 1004 10 16 0.00 0.00
12:35 am 00:35 Cloudy 35 1.5 19 -7.2 52 52 NNE 26 43 29.65 1004 10 16 0.00 0.00
12:55 am 00:55 Cloudy 34 1.3 19 -7.5 52 52 NNE 26 43 29.64 1004 10 16 0.00 0.00
1:15 am 01:15 Cloudy 34 0.9 20 -6.8 56 56 NNE 32 52 29.66 1004 10 16 0.00 0.00
1:35 am 01:35 Cloudy 33 0.5 21 -5.9 62 62 NNE 26 43 29.64 1004 10 16 0.00 0.00
1:55 am 01:55 Cloudy 32 0 23 -5 69 69 NNE 29 46 29.65 1004 10 16 0.00 0.00
2:15 am 02:15 Cloudy 32 -0.2 24 -4.6 72 72 NNE 31 50 29.65 1004 10 16 0.00 0.00
2:35 am 02:35 Cloudy 31 -0.4 24 -4.5 74 74 NNE 30 48 29.65 1004 10 16 0.00 0.00
2:55 am 02:55 Cloudy 31 -0.5 24 -4.3 75 75 NNE 26 43 29.65 1004 10 16 0.00 0.00
3:15 am 03:15 Cloudy 31 -0.5 24 -4.3 75 75 NNE 28 44 29.66 1004 10 16 0.00 0.00
3:35 am 03:35 Cloudy 31 -0.7 24 -4.2 77 77 NNE 28 44 29.66 1004 10 16 0.00 0.00
3:55 am 03:55 Cloudy 31 -0.8 24 -4.4 77 77 NNE 22 35 29.68 1005 10 16 0.00 0.00
4:15 am 04:15 Cloudy 30 -1 24 -4.3 78 78 NNE 22 35 29.71 1006 10 16 0.00 0.00
4:35 am 04:35 Cloudy 30 -1 24 -4.3 78 78 NNE 22 35 29.71 1006 10 16 0.00 0.00
4:55 am 04:55 Cloudy 30 -1.3 25 -4 82 82 N 15 24 29.73 1007 7 11 0.00 0.00
5:15 am 05:15 Cloudy with Light Wintry Mix 29 -1.8 26 -3.3 89 89 N 23 37 29.73 1007 4 6 0.00 0.00
5:35 am 05:35 Windy with Snow Likely 28 -2.5 25 -4 89 89 N 22 35 29.76 1008 4 6 0.00 0.00
5:55 am 05:55 Windy with Snow Likely 27 -2.8 24 -4.6 87 87 N 20 31 29.77 1008 5 8 0.00 0.00
6:15 am 06:15 Windy with Snow Likely 26 -3.1 23 -4.9 87 87 N 22 35 29.81 1009 5 8 0.00 0.00
6:35 am 06:35 Windy with Snow Likely 26 -3.3 23 -5 88 88 N 20 31 29.81 1009 5 8 0.00 0.00
6:55 am 06:55 Cloudy with Light Snow 26 -3.5 22 -5.5 86 86 N 17 28 29.83 1010 3 5 0.00 0.00
7:15 am 07:15 Windy with Snow Likely 25 -3.9 22 -5.8 87 87 N 20 31 29.83 1010 4 6 0.00 0.00
7:35 am 07:35 Windy with Snow Likely 25 -4.1 21 -6.3 85 85 N 20 31 29.85 1011 4 6 0.00 0.00
7:55 am 07:55 Cloudy with Light Snow 24 -4.6 20 -6.7 85 85 N 17 28 29.85 1011 3 4 0.00 0.00
8:15 am 08:15 Cloudy with Light Snow 23 -4.8 20 -6.8 86 86 N 16 26 29.88 1012 3 5 0.00 0.00
8:35 am 08:35 Cloudy with Light Snow 23 -5 19 -7 86 86 N 17 28 29.90 1012 4 6 0.00 0.00
8:55 am 08:55 Cloudy with Light Snow 23 -5.1 18 -7.6 83 83 N 17 28 29.90 1012 7 11 0.00 0.00
9:15 am 09:15 Cloudy with Light Snow 23 -5.1 19 -7.2 85 85 N 13 20 29.91 1013 1 2 0.00 0.00
9:35 am 09:35 Cloudy with Light Snow 23 -5.2 19 -7 87 87 N 10 17 29.92 1013 1 2 0.00 0.00
9:55 am 09:55 Cloudy with Light Snow 22 -5.5 19 -7.4 86 86 N 17 28 29.94 1014 1 2 0.00 0.00
10:15 am 10:15 Cloudy with Light Snow 22 -5.7 18 -8 84 84 N 17 28 29.94 1014 2 3 0.00 0.00
10:35 am 10:35 Cloudy with Light Snow 22 -5.7 18 -8 84 84 N 16 26 29.97 1015 5 8 0.00 0.00
10:55 am 10:55 Cloudy with Light Snow 23 -5.2 19 -7.5 84 84 NNW 18 30 29.98 1015 2 3 0.00 0.00
11:15 am 11:15 Partly Cloudy 24 -4.3 19 -7.4 79 79 NNW 20 31 29.97 1015 10 16 0.00 0.00
11:35 am 11:35 Sunny 24 -4.3 17 -8.3 74 74 NNW 17 28 29.96 1015 10 16 0.00 0.00
11:55 am 11:55 Sunny 25 -4.1 15 -9.2 68 68 NNW 21 33 29.98 1015 10 16 0.00 0.00
12:15 pm 12:15 Sunny 25 -3.7 16 -8.8 68 68 NNW 18 30 29.97 1015 10 16 0.00 0.00
12:35 pm 12:35 Sunny 26 -3.2 17 -8.6 66 66 NNW 17 28 29.97 1015 10 16 0.00 0.00
12:55 pm 12:55 Sunny 26 -3.3 15 -9.2 64 64 NNW 17 28 29.99 1016 10 16 0.00 0.00
1:15 pm 13:15 Partly Cloudy 26 -3.5 15 -9.7 62 62 NNW 17 28 29.99 1016 10 16 0.00 0.00
1:35 pm 13:35 Sunny 26 -3.6 14 -10 61 61 NNW 21 33 30.00 1016 10 16 0.00 0.00
1:55 pm 13:55 Sunny 25 -3.7 13 -10.7 58 58 NNW 23 37 29.98 1015 10 16 0.00 0.00
2:15 pm 14:15 Sunny 26 -3.3 13 -10.7 56 56 NNW 23 37 30.00 1016 10 16 0.00 0.00
2:35 pm 14:35 Sunny 26 -3.6 13 -10.7 58 58 NNW 23 37 30.02 1017 10 16 0.00 0.00
2:55 pm 14:55 Sunny 27 -2.9 13 -10.6 55 55 NW 26 43 30.03 1017 10 16 0.00 0.00
3:15 pm 15:15 Sunny 26 -3.5 12 -11.2 55 55 NNW 22 35 30.04 1017 10 16 0.00 0.00
3:35 pm 15:35 Sunny 25 -3.7 12 -11.3 55 55 NNW 22 35 30.05 1018 10 16 0.00 0.00
3:55 pm 15:55 Sunny 25 -4 12 -11.2 57 57 NNW 16 26 30.07 1018 10 16 0.00 0.00
4:15 pm 16:15 Sunny 25 -4 12 -11.1 58 58 NW 16 26 30.08 1019 10 16 0.00 0.00
4:35 pm 16:35 Sunny 24 -4.2 12 -11.3 58 58 NW 21 33 30.09 1019 10 16 0.00 0.00
4:55 pm 16:55 Sunny 24 -4.5 12 -11 60 60 NW 17 28 30.11 1020 10 16 0.00 0.00
5:15 pm 17:15 Clear 22 -5.3 12 -11 64 64 NW 9 15 30.13 1020 10 16 0.00 0.00
5:35 pm 17:35 Clear 21 -5.9 13 -10.8 68 68 WNW 10 17 30.15 1021 10 16 0.00 0.00
5:55 pm 17:55 Clear 21 -5.9 12 -11 67 67 WNW 12 19 30.17 1022 10 16 0.00 0.00
6:15 pm 18:15 Clear 20 -6.5 13 -10.7 72 72 WNW 10 17 30.18 1022 10 16 0.00 0.00
6:35 pm 18:35 Clear 18 -7.6 11 -11.4 74 74 WNW 9 15 30.22 1023 10 16 0.00 0.00
6:55 pm 18:55 Clear 18 -7.6 11 -11.5 73 73 WNW 8 13 30.22 1023 10 16 0.00 0.00
7:15 pm 19:15 Clear 17 -8.1 11 -11.7 75 75 WNW 8 13 30.23 1024 10 16 0.00 0.00
7:35 pm 19:35 Clear 16 -9.1 10 -12.3 77 77 WNW 8 13 30.25 1024 10 16 0.00 0.00
7:55 pm 19:55 Clear 14 -9.8 9 -12.6 80 80 WNW 8 13 30.27 1025 10 16 0.00 0.00
8:15 pm 20:15 Clear 15 -9.4 10 -12.4 79 79 W 8 13 30.27 1025 10 16 0.00 0.00
8:35 pm 20:35 Clear 16 -9 10 -12.2 77 77 WNW 10 17 30.28 1025 10 16 0.00 0.00
8:55 pm 20:55 Clear 15 -9.2 9 -12.6 76 76 WNW 10 17 30.29 1026 10 16 0.00 0.00
9:15 pm 21:15 Clear 14 -9.8 9 -13 77 77 WNW 9 15 30.31 1026 10 16 0.00 0.00
9:35 pm 21:35 Clear 14 -10.2 8 -13.2 79 79 WNW 7 11 30.31 1026 10 16 0.00 0.00
9:55 pm 21:55 Clear 15 -9.3 9 -12.8 76 76 WNW 8 13 30.30 1026 10 16 0.00 0.00
10:15 pm 22:15 Clear 13 -10.3 8 -13.5 77 77 WNW 8 13 30.33 1027 10 16 0.00 0.00
10:35 pm 22:35 Clear 13 -10.4 8 -13.5 78 78 NW 7 11 30.34 1027 10 16 0.00 0.00
10:55 pm 22:55 Clear 11 -11.6 6 -14.4 80 80 NNW 8 13 30.36 1028 10 16 0.00 0.00
11:15 pm 23:15 Clear 10 -12 6 -14.4 82 82 NW 6 9 30.36 1028 10 16 0.00 0.00
11:35 pm 23:35 Clear 11 -11.6 6 -14.2 81 81 WNW 8 13 30.37 1028 10 16 0.00 0.00
11:55 pm 23:55 Clear 13 -10.6 8 -13.6 78 78 NW 7 11 30.36 1028 10 16 0.00 0.00

Powered by AerisWeather